Location: ???????
(55.4362°N, 38.1183°E)
Time: 20:27:11
(UTC+00:00)

FENGYUN 3B - Visible Passes

Search period start: 24 January 2022 00:00
Search period end: 03 February 2022 00:00
Orbit: 828 x 861 km, 99.1° (Epoch: 24 January)

Date Brightness Start Highest point End Pass type
(mag) Time Alt. Az. Time Alt. Az. Time Alt. Az.
24 Jan ? 02:49:05 10° NNE 02:54:04 34° E 02:59:02 10° SSE visible
24 Jan ? 04:29:33 10° N 04:34:51 53° WNW 04:40:09 10° SW visible
24 Jan ? 14:22:09 10° S 14:27:31 71° WSW 14:32:58 10° NNW visible
24 Jan ? 16:06:12 10° WSW 16:09:06 14° W 16:12:00 10° NW visible
25 Jan ? 02:35:43 10° NE 02:40:23 28° E 02:45:04 10° SSE visible
25 Jan ? 04:15:58 10° NNE 04:21:22 64° WNW 04:26:47 10° SSW visible
25 Jan ? 15:51:42 10° SW 15:55:20 18° W 15:59:00 10° NW visible
26 Jan ? 02:22:25 10° NE 02:26:42 23° E 02:30:59 10° SE visible
26 Jan ? 04:02:22 10° NNE 04:07:51 78° WNW 04:13:21 10° SSW visible
26 Jan ? 15:37:25 10° SW 15:41:36 23° W 15:45:49 10° NW visible
27 Jan ? 02:09:13 10° NE 02:12:58 18° E 02:16:43 10° SE visible
27 Jan ? 03:48:49 10° NNE 03:54:19 86° ESE 03:59:50 10° SSW visible
27 Jan ? 15:23:19 10° SSW 15:27:54 28° W 15:32:31 10° NW visible
28 Jan ? 01:56:11 10° NE 01:59:12 15° E 02:02:14 10° ESE visible
28 Jan ? 03:35:17 10° NNE 03:40:46 71° ESE 03:46:16 10° S visible
28 Jan ? 15:09:20 10° SSW 15:14:13 34° W 15:19:09 10° NNW visible
29 Jan ? 01:43:34 10° ENE 01:45:25 12° E 01:47:17 10° E visible
29 Jan ? 03:21:46 10° NNE 03:27:11 57° ESE 03:32:36 10° S visible
29 Jan ? 14:55:28 10° S 15:00:34 42° W 15:05:44 10° NNW visible
30 Jan ? 03:08:17 10° NNE 03:13:34 46° E 03:18:52 10° S visible
30 Jan ? 14:41:41 10° S 14:46:57 53° W 14:52:16 10° NNW visible
30 Jan ? 16:28:01 10° W 16:28:48 10° W 16:29:35 10° WNW visible
31 Jan ? 02:54:51 10° NNE 02:59:57 37° E 03:05:02 10° SSE visible
31 Jan ? 04:35:23 10° N 04:40:39 49° WNW 04:45:56 10° SW visible
31 Jan ? 16:12:27 10° WSW 16:15:00 13° W 16:17:34 10° NW visible
01 Feb ? 02:41:27 10° NNE 02:46:17 30° E 02:51:06 10° SSE visible
01 Feb ? 04:21:47 10° NNE 04:27:10 60° WNW 04:32:36 10° SW visible
01 Feb ? 15:57:49 10° SW 16:01:14 17° W 16:04:40 10° NW visible
02 Feb ? 02:28:07 10° NE 02:32:36 25° E 02:37:04 10° SE visible
02 Feb ? 04:08:11 10° NNE 04:13:41 73° WNW 04:19:11 10° SSW visible
02 Feb ? 15:43:28 10° SW 15:47:29 21° W 15:51:33 10° NW visible
